Location: Sternwarte ZA, Rosenfeld-Brittheim
(48.2889°N, 8.6789°E)
Time: 02:11:13
(UTC+02:00)

ISS - Pass Details

Date: 14 July 2018
Orbit: 402 x 408 km, 51.6° (Epoch: 17 July)

Event Time Altitude Azimuth Distance (km) Brightness Sun altitude
Exits shadow 02:40:23 43° 265° (W) 581 -3.3 -18.3°
Maximum altitude 02:41:19 76° 340° (NNW) 425 -3.7 -18.3°
Drops below altitude 10° 02:44:37 10° 67° (ENE) 1,472 -0.4 -18.1°
Sets 02:46:43 0° 69° (ENE) 2,336 0.6 -18.0°
